Regional Weather Roundup
Issued by NWS

Home | Current Version | Previous Version | Graphics & Text | Print | Product List | Glossary On
Versions: 1 2 3 4 5 6 7 8 9 10 11 12 13 14 15 16 17 18 19 20 21 22 23 24 25 26 27 28 29 30 31 32 33 34 35 36 37 38 39 40 41 42 43 44 45 46 47 48 49 50
000
ASUS45 KTFX 232010
RWRMT
MONTANA REGIONAL WEATHER ROUNDUP
NATIONAL WEATHER SERVICE GREAT FALLS MT
200 PM MDT MON MAY 23 2016

NOTE: "FAIR" INDICATES FEW OR NO CLOUDS BELOW 12000 FEET WITH NO
SIGNIFICANT WEATHER AND/OR OBSTRUCTIONS TO VISIBILITY.

MTZ001>007-043-232100-
WEST OF THE DIVIDE

CITY           SKY/WX    TMP DP  RH WIND       PRES   REMARKS
KALISPELL      LGT RAIN  48  47  96 S14       29.77S
MISSOULA       LGT RAIN  50  41  71 CALM      29.85R
BUTTE          CLOUDY    48  28  46 SW14      29.84F
MULLAN PASS    SNOW      32  32 100 SW8       29.82R VSB 1/4 WCI  25
ANACONDA         N/A     50  30  46 W14G21    29.81F
DEER LODGE       N/A     46  39  76 NE8       29.84R
EUREKA           N/A     48  39  71 SE8       29.77S
HAMILTON         N/A     54  34  47 SE6       29.83S
LIBBY            N/A     48  45  87 NW7       29.80R
PLAINS           N/A     52  42  68 CALM      29.85R
$$

MTZ008-052>055-232100-
SOUTHWEST MONTANA

CITY           SKY/WX    TMP DP  RH WIND       PRES   REMARKS
BOZEMAN        LGT RAIN  50  36  58 SW9G22    29.82S
DILLON         CLOUDY    52  29  41 W14       29.84F
ENNIS          CLOUDY    50  32  50 S13       29.90F
TWIN BRIDGES     N/A     53  27  37 S13       29.85F
$$

MTZ009-010-012-014-046-048-049-054-232100-
EAST SLOPES AND CENTRAL MONTANA

CITY           SKY/WX    TMP DP  RH WIND       PRES   REMARKS
CUT BANK       CLOUDY    47  40  76 N18       29.73R
GREAT FALLS    LGT RAIN  47  39  74 W16G22    29.75R
MALMSTROM AFB  LGT RAIN  49  42  76 W12       29.74R
HELENA         CLOUDY    51  40  65 W15G21    29.81S
CHOTEAU          N/A     48  41  76 CALM      29.75R
CONRAD           N/A     48  47  97 W6        29.79R
$$

MTZ011-013-016-021-045-047-050-051-232100-
NORTH CENTRAL MONTANA

CITY           SKY/WX    TMP DP  RH WIND       PRES   REMARKS
HAVRE          CLOUDY    52  43  71 NW20      29.68R
LEWISTOWN      CLOUDY    52  35  52 W23       29.74R
N BAR RANCH      N/A     55  36  47 W17G32    29.76R
CHINOOK          N/A     52  43  71 W18       29.67R
$$

MTZ017>020-022>027-061-062-232100-
NORTHEAST MONTANA

CITY           SKY/WX    TMP DP  RH WIND       PRES   REMARKS
GLASGOW        LGT RAIN  55  45  68 W22G30    29.65R
JORDAN           N/A     61  37  41 W20G29    29.70R
SIDNEY         MOSUNNY   72  36  26 SW23      29.64S
WOLF POINT     CLOUDY    62  40  44 W20G33    29.66S
PLENTYWOOD       N/A     63  37  39 SW22G31   29.62S
POPLAR           N/A     63  39  42 W22G29    29.65S
SCOBEY           N/A     58  35  42 SW21      29.63R
$$

MTZ028>42-056>058-232100-
SOUTHCENTRAL AND SOUTHEAST MONTANA

CITY           SKY/WX    TMP DP  RH WIND       PRES   REMARKS
BAKER          LGT RAIN  65  38  36 W18G37    29.72S
BILLINGS       CLOUDY    61  30  31 W17G28    29.77R
LIVINGSTON     CLOUDY    53  37  54 NW13      29.79S
MILES CITY     MOSUNNY   69  30  23 W21G31    29.70S
EKALAKA          N/A     67  30  25 S7        29.74F
FORSYTH          N/A     66  32  28 W18       29.71R
$$

REGIONAL REPORTS...DAKOTAS

CITY           SKY/WX    TMP DP  RH WIND       PRES   REMARKS
WILLISTON      MOSUNNY   71  34  25 W21G35    29.62F
MINOT          SUNNY     80  32  17 SW14G24   29.62R
DICKINSON      MOSUNNY   68  26  20 W12G29    29.68R
BEACH          PTSUNNY   66  28  24 W21G30    29.71F
CROSBY         PTSUNNY   66  34  30 SW21      29.62R
WATFORD CITY     N/A     70  32  24 W22G31    29.64S
BISMARCK       MOSUNNY   80  36  20 SW15G21   29.67S
GRAND FORKS    MOSUNNY   80  49  33 W14       29.63S
FARGO          PTSUNNY   79  46  31 NW9       29.67R
BUFFALO SD       N/A     70  30  22 VRB3      29.65F
RAPID CITY     SUNNY     75  26  16 W20G26    29.71F
$$

REGIONAL REPORTS...WYOMING/IDAHO/WASHINGTON

CITY           SKY/WX    TMP DP  RH WIND       PRES   REMARKS
GILLETTE       SUNNY     67  23  19 SW16G28   29.74F
SHERIDAN       MOSUNNY   65  27  23 NW9       29.74S
BUFFALO WY     SUNNY     63  27  25 E8        29.78S
CODY           CLOUDY    59  25  27 W12G21    29.81S
YELLOWSTONE LA   N/A     36  29  75 VRB6G20   29.95S WCI  31
IDAHO FALLS    PTSUNNY   59  33  37 S18G25    29.89F
SALMON         CLOUDY    54  34  47 S5        29.83S
BOISE          MOSUNNY   66  30  26 W9        29.86F
SPOKANE        LGT RAIN  53  44  71 SW15      29.83S
$$

REGIONAL REPORTS...ALBERTA

CITY           SKY/WX    TMP DP  RH WIND       PRES   REMARKS
EDMONTON       CLOUDY    46  41  81 N9        29.71R
CALGARY        LGT RAIN  45  37  76 N20G28    29.72R
LETHBRIDGE     CLOUDY    46  41  81 NW20      29.73R
WATERTON GATE    N/A     45  39  81 SW7         N/A
MILK RIVER       N/A     45  39  81 NW21        N/A
$$

REGIONAL REPORTS...SASKATCHEWAN

CITY           SKY/WX    TMP DP  RH WIND       PRES   REMARKS
SWIFT CURRENT  CLOUDY    52  45  76 NW18      29.50R
REGINA         PTSUNNY   57  39  51 SW15G22   29.55R
SASKATOON      CLOUDY    55  39  54 SE3       29.53R
CYPRESS HILLS    N/A     41  37  87 W13G20      N/A
VAL MARIE        N/A     52  43  71 W24G30      N/A
ROCKGLEN         N/A     55  41  58 SW22G32     N/A
ASSINIBOIA       N/A     50  46  87 N13G18      N/A
$$



USA.gov is the U.S. government's official web portal to all federal, state and local government web resources and services.